Location: Great Chart
(51.1333°N, 0.8333°E)
Time: 11:29:03
(UTC+00:00)

Cosmos 2061 Rocket - Pass Details

Date: 19 September 2020
Orbit: 966 x 1012 km, 82.9° (Epoch: 30 October)

Event Time Altitude Azimuth Distance (km) Brightness Sun altitude
Rises 04:58:24 0° 349° (N) 3,751 7.1 -7.1°
Reaches altitude 10° 05:00:56 10° 349° (N) 2,801 6.4 -6.7°
Maximum altitude 05:07:24 86° 263° (W) 1,022 4.1 -5.7°
Drops below altitude 10° 05:13:50 10° 175° (S) 2,786 6.4 -4.7°
Sets 05:16:21 0° 175° (S) 3,731 7.0 -4.3°
